H1 CPF 2 NER 2024 5 10 9 131 01 glonass107 H2 0706501 9107 32393 2024 5 10 0 0 0 2024 5 13 23 45 0 900 1 1 0 0 0 1 H9 10 0 60440 0.00000 0 1220339.201 10994652.969 22971948.570 10 0 60440 900.00000 0 -1529501.939 11607910.232 22649759.908 10 0 60440 1800.00000 0 -4163849.689 12398961.953 21887143.195 10 0 60440 2700.00000 0 -6621428.980 13336607.956 20698940.505 10 0 60440 3600.00000 0 -8848394.749 14379862.933 19108273.307 10 0 60440 4500.00000 0 -10800322.616 15479686.886 17146091.385 10 0 60440 5400.00000 0 -12443805.379 16581073.633 14850568.950 10 0 60440 6300.00000 0 -13757589.679 17625409.368 12266359.587 10 0 60440 7200.00000 0 -14733206.477 18553001.738 9443724.591 10 0 60440 8100.00000 0 -15375070.260 19305672.547 6437551.765 10 0 60440 9000.00000 0 -15700044.260 19829304.468 3306284.034 10 0 60440 9900.00000 0 -15736491.453 20076233.925 110779.154 10 0 60440 10800.00000 0 -15522852.806 20007388.854 -3086876.791 10 0 60440 11700.00000 0 -15105814.131 19594080.852 -6224578.535 10 0 60440 12600.00000 0 -14538140.126 18819375.864 -9241409.369 10 0 60440 13500.00000 0 -13876268.114 17678985.459 -12078823.657 10 0 60440 14400.00000 0 -13177763.766 16181640.969 -14681781.024 10 0 60440 15300.00000 0 -12498746.672 14348934.567 -16999810.259 10 0 60440 16200.00000 0 -11891394.452 12214633.674 -18987982.648 10 0 60440 17100.00000 0 -11401630.485 9823496.946 -20607776.482 10 0 60440 18000.00000 0 -11067092.263 7229640.781 -21827816.721 10 0 60440 18900.00000 0 -10915465.384 4494523.691 -22624476.346 10 0 60440 19800.00000 0 -10963252.728 1684631.465 -22982328.623 10 0 60440 20700.00000 0 -11215030.134 -1131041.726 -22894442.190 10 0 60440 21600.00000 0 -11663219.614 -3883612.980 -22362513.794 10 0 60440 22500.00000 0 -12288389.644 -6506923.702 -21396836.302 10 0 60440 23400.00000 0 -13060070.215 -8940038.920 -20016102.509 10 0 60440 24300.00000 0 -13938048.945 -11129530.424 -18247048.144 10 0 60440 25200.00000 0 -14874094.506 -13031450.066 -16123940.314 10 0 60440 26100.00000 0 -15814035.704 -14612912.106 -13687920.496 10 0 60440 27000.00000 0 -16700109.488 -15853219.534 -10986213.920 10 0 60440 27900.00000 0 -17473479.670 -16744488.011 -8071219.821 10 0 60440 28800.00000 0 -18076820.548 -17291741.843 -4999499.543 10 0 60440 29700.00000 0 -18456856.581 -17512478.401 -1830681.680 10 0 60440 30600.00000 0 -18566750.672 -17435719.643 1373694.741 10 0 60440 31500.00000 0 -18368239.644 -17100590.996 4551376.428 10 0 60440 32400.00000 0 -17833425.883 -16554487.863 7640607.829 10 0 60440 33300.00000 0 -16946148.402 -15850907.484 10581334.968 10 0 60440 34200.00000 0 -15702874.218 -15047038.195 13316377.120 10 0 60440 35100.00000 0 -14113071.145 -14201208.328 15792542.971 10 0 60440 36000.00000 0 -12199044.902 -13370303.038 17961669.116 10 0 60440 36900.00000 0 -9995246.123 -12607258.600 19781560.280 10 0 60440 37800.00000 0 -7547075.078 -11958740.361 21216812.781 10 0 60440 38700.00000 0 -4909233.090 -11463102.659 22239505.155 10 0 60440 39600.00000 0 -2143688.609 -11148716.992 22829742.531 10 0 60440 40500.00000 0 682657.974 -11032739.046 22976044.295 10 0 60440 41400.00000 0 3500514.152 -11120366.640 22675567.624 10 0 60440 42300.00000 0 6240834.592 -11404619.809 21934162.643 10 0 60440 43200.00000 0 8837450.576 -11866652.313 20766258.171 10 0 60440 44100.00000 0 11229580.768 -12476581.298 19194580.233 10 0 60440 45000.00000 0 13364119.281 -13194800.083 17249708.726 10 0 60440 45900.00000 0 15197606.406 -13973718.505 14969480.795 10 0 60440 46800.00000 0 16697800.578 -14759857.234 12398252.392 10 0 60440 47700.00000 0 17844786.792 -15496207.349 9586032.448 10 0 60440 48600.00000 0 18631576.211 -16124755.202 6587506.627 10 0 60440 49500.00000 0 19064173.018 -16589065.516 3460969.902 10 0 60440 50400.00000 0 19161107.081 -16836813.135 267189.145 10 0 60440 51300.00000 0 18952453.454 -16822155.998 -2931781.633 10 0 60440 52200.00000 0 18478381.378 -16507848.676 -6073809.868 10 0 60440 53100.00000 0 17787295.206 -15867006.836 -9097892.817 10 0 60440 54000.00000 0 16933646.733 -14884447.852 -11945341.895 10 0 60440 54900.00000 0 15975511.997 -13557550.723 -14560919.819 10 0 60440 55800.00000 0 14972035.270 -11896598.781 -16893908.520 10 0 60440 56700.00000 0 13980848.136 -9924590.383 -18899087.436 10 0 60440 57600.00000 0 13055572.204 -7676524.995 -20537603.822 10 0 60440 58500.00000 0 12243510.137 -5198193.892 -21777718.913 10 0 60440 59400.00000 0 11583621.444 -2544525.095 -22595416.357 10 0 60440 60300.00000 0 11104867.345 222449.501 -22974861.975 10 0 60440 61200.00000 0 10824993.448 3035921.420 -22908706.656 10 0 60440 62100.00000 0 10749800.705 5826831.906 -22398227.049 10 0 60440 63000.00000 0 10872934.779 8526493.766 -21453301.546 10 0 60440 63900.00000 0 11176202.446 11069201.245 -20092221.948 10 0 60440 64800.00000 0 11630401.794 13394720.926 -18341344.074 10 0 60440 65700.00000 0 12196631.600 15450561.330 -16234583.428 10 0 60440 66600.00000 0 12828025.275 17193927.816 -13812764.901 10 0 60440 67500.00000 0 13471836.868 18593282.136 -11122838.241 10 0 60440 68400.00000 0 14071791.731 19629442.197 -8216973.645 10 0 60440 69300.00000 0 14570603.024 20296176.478 -5151554.365 10 0 60440 70200.00000 0 14912547.930 20600268.508 -1986085.400 10 0 60440 71100.00000 0 15045994.605 20561048.946 1217960.780 10 0 60440 72000.00000 0 14925772.569 20209415.122 4398338.954 10 0 60440 72900.00000 0 14515285.587 19586379.546 7493242.847 10 0 60440 73800.00000 0 13788276.708 18741208.783 10442509.827 10 0 60440 74700.00000 0 12730169.672 17729231.496 13188794.572 10 0 60440 75600.00000 0 11338928.693 16609408.465 15678688.372 10 0 60440 76500.00000 0 9625398.920 15441767.447 17863761.821 10 0 60440 77400.00000 0 7613111.793 14284811.420 19701510.198 10 0 60440 78300.00000 0 5337562.072 13193009.777 21156182.965 10 0 60440 79200.00000 0 2844985.500 12214478.360 22199481.151 10 0 60440 80100.00000 0 190687.127 11388946.170 22811109.091 10 0 60440 81000.00000 0 -2563010.930 10746094.286 22979169.908 10 0 60440 81900.00000 0 -5349117.539 10304336.736 22700397.155 10 0 60440 82800.00000 0 -8098519.310 10070094.391 21980218.236 10 0 60440 83700.00000 0 -10742620.598 10037592.031 20832648.399 10 0 60440 84600.00000 0 -13215967.418 10189186.755 19280017.340 10 0 60440 85500.00000 0 -15458746.466 10496213.414 17352533.650 10 0 60441 0.00000 0 -17419055.490 10920310.884 15087695.708 10 0 60441 900.00000 0 -19054851.874 11415172.985 12529559.105 10 0 60441 1800.00000 0 -20335496.159 11928648.972 9727877.972 10 0 60441 2700.00000 0 -21242830.244 12405105.058 6737133.012 10 0 60441 3600.00000 0 -21771743.360 12787946.034 3615468.306 10 0 60441 4500.00000 0 -21930204.246 13022189.955 423556.867 10 0 60441 5400.00000 0 -21738759.173 13056986.400 -2776582.336 10 0 60441 6300.00000 0 -21229518.148 12847971.279 -5922792.365 10 0 60441 7200.00000 0 -20444673.169 12359358.117 -8953987.301 10 0 60441 8100.00000 0 -19434612.010 11565677.094 -11811338.366 10 0 60441 9000.00000 0 -18255707.850 10453087.990 -14439413.970 10 0 60441 9900.00000 0 -16967878.452 9020211.348 -16787251.567 10 0 60441 10800.00000 0 -15632017.873 7278442.427 -18809340.870 10 0 60441 11700.00000 0 -14307408.678 5251734.191 -20466499.895 10 0 60441 12600.00000 0 -13049223.002 2975857.756 -21726627.597 10 0 60441 13500.00000 0 -11906216.717 497170.318 -22565319.354 10 0 60441 14400.00000 0 -10918712.567 -2129059.080 -22966334.228 10 0 60441 15300.00000 0 -10116955.883 -4840697.396 -22921905.664 10 0 60441 16200.00000 0 -9519910.837 -7571085.218 -22432890.138 10 0 60441 17100.00000 0 -9134546.827 -10251568.448 -21508751.134 10 0 60441 18000.00000 0 -8955644.260 -12814120.247 -20167378.677 10 0 60441 18900.00000 0 -8966127.437 -15193945.661 -18434747.570 10 0 60441 19800.00000 0 -9137910.366 -17331961.892 -16344420.324 10 0 60441 20700.00000 0 -9433219.982 -19177051.952 -13936903.613 10 0 60441 21600.00000 0 -9806341.263 -20687998.650 -11258869.888 10 0 60441 22500.00000 0 -10205710.919 -21835018.720 -8362258.353 10 0 60441 23400.00000 0 -10576271.567 -22600833.324 -5303272.119 10 0 60441 24300.00000 0 -10861986.995 -22981230.260 -2141290.468 10 0 60441 25200.00000 0 -11008412.096 -22985094.395 1062282.878 10 0 60441 26100.00000 0 -10965208.383 -22633905.001 4245213.038 10 0 60441 27000.00000 0 -10688497.984 -21960721.210 7345645.370 10 0 60441 27900.00000 0 -10142955.656 -21008698.313 10303311.006 10 0 60441 28800.00000 0 -9303549.169 -19829197.533 13060702.505 10 0 60441 29700.00000 0 -8156853.258 -18479569.101 15564196.241 10 0 60441 30600.00000 0 -6701880.218 -17020702.239 17765099.217 10 0 60441 31500.00000 0 -4950390.660 -15514445.465 19620599.536 10 0 60441 32400.00000 0 -2926669.880 -14021006.013 21094601.853 10 0 60441 33300.00000 0 -666777.741 -12596437.854 22158431.467 10 0 60441 34200.00000 0 1782697.786 -11290323.957 22791393.372 10 0 60441 35100.00000 0 4366332.497 -10143750.018 22981175.529 10 0 60441 36000.00000 0 7021933.642 -9187654.488 22724088.624 10 0 60441 36900.00000 0 9682897.995 -8441623.762 22025137.744 10 0 60441 37800.00000 0 12280762.739 -7913182.572 20897924.644 10 0 60441 38700.00000 0 14747843.447 -7597608.705 19364382.443 10 0 60441 39600.00000 0 17019849.689 -7478279.117 17454347.853 10 0 60441 40500.00000 0 19038369.595 -7527531.995 15204979.160 10 0 60441 41400.00000 0 20753120.145 -7708007.657 12660031.155 10 0 60441 42300.00000 0 22123869.556 -7974410.829 9869001.183 10 0 60441 43200.00000 0 23121951.926 -8275619.040 6886162.988 10 0 60441 44100.00000 0 23731311.334 -8557047.212 3769507.408 10 0 60441 45000.00000 0 23949032.371 -8763167.632 579610.920 10 0 60441 45900.00000 0 23785335.747 -8840077.947 -2621545.463 10 0 60441 46800.00000 0 23263040.147 -8738007.859 -5771783.498 10 0 60441 47700.00000 0 22416513.999 -8413657.868 -8809937.190 10 0 60441 48600.00000 0 21290162.206 -7832270.672 -11677040.601 10 0 60441 49500.00000 0 19936512.360 -6969347.279 -14317470.728 10 0 60441 50400.00000 0 18413981.540 -5811934.986 -16680023.252 10 0 60441 51300.00000 0 16784417.894 -4359432.544 -18718900.620 10 0 60441 52200.00000 0 15110520.257 -2623878.100 -20394593.826 10 0 60441 53100.00000 0 13453243.747 -629707.202 -21674641.484 10 0 60441 54000.00000 0 11869299.476 1587009.850 -22534252.361 10 0 60441 54900.00000 0 10408852.169 3979820.444 -22956780.105 10 0 60441 55800.00000 0 9113511.018 6493580.788 -22934041.728 10 0 60441 56700.00000 0 8014696.681 9066516.653 -22466474.203 10 0 60441 57600.00000 0 7132451.605 11632569.344 -21563126.406 10 0 60441 58500.00000 0 6474742.472 14123930.760 -20241486.520 10 0 60441 59400.00000 0 6037283.130 16473663.460 -18527147.898 10 0 60441 60300.00000 0 5803884.819 18618297.970 -16453319.239 10 0 60441 61200.00000 0 5747318.596 20500300.172 -14060187.805 10 0 60441 62100.00000 0 5830653.510 22070306.694 -11394147.163 10 0 60441 63000.00000 0 6009014.104 23289035.514 -8506903.566 10 0 60441 63900.00000 0 6231683.116 24128792.135 -5454477.657 10 0 60441 64800.00000 0 6444460.577 24574508.321 -2296120.358 10 0 60441 65700.00000 0 6592179.387 24624269.745 906836.255 10 0 60441 66600.00000 0 6621270.620 24289310.189 4092170.719 10 0 60441 67500.00000 0 6482269.423 23593472.334 7197983.189 10 0 60441 68400.00000 0 6132154.639 22572157.641 10163901.725 10 0 60441 69300.00000 0 5536422.126 21270809.389 12932259.863 10 0 60441 70200.00000 0 4670802.924 19742992.700 15449222.015 10 0 60441 71100.00000 0 3522552.301 18048152.318 17665834.372 10 0 60441 72000.00000 0 2091253.889 16249142.573 19538980.425 10 0 60441 72900.00000 0 389103.566 14409633.386 21032222.328 10 0 60441 73800.00000 0 -1559340.362 12591501.273 22116511.663 10 0 60441 74700.00000 0 -3717931.525 10852314.816 22770755.762 10 0 60441 75600.00000 0 -6040203.300 9243019.841 22982228.707 10 0 60441 76500.00000 0 -8471078.148 7805920.990 22746819.143 10 0 60441 77400.00000 0 -10948948.032 6573043.782 22069110.172 10 0 60441 78300.00000 0 -13408039.873 5564945.147 20962289.833 10 0 60441 79200.00000 0 -15780967.976 4790021.450 19447893.884 10 0 60441 80100.00000 0 -18001367.378 4244342.131 17555385.817 10 0 60441 81000.00000 0 -20006498.580 3912014.847 15321582.162 10 0 60441 81900.00000 0 -21739715.168 3766065.680 12789934.186 10 0 60441 82800.00000 0 -23152691.390 3769796.166 10009679.939 10 0 60441 83700.00000 0 -24207316.777 3878558.798 7034883.252 10 0 60441 84600.00000 0 -24877178.795 4041874.917 3923378.597 10 0 60441 85500.00000 0 -25148571.778 4205804.441 735642.718 10 0 60442 0.00000 0 -25020990.429 4315466.250 -2466384.255 10 0 60442 900.00000 0 -24507087.700 4317601.764 -5620506.517 10 0 60442 1800.00000 0 -23632099.846 4163072.376 -8665480.808 10 0 60442 2700.00000 0 -22432763.384 3809184.713 -11542207.014 10 0 60442 3600.00000 0 -20955770.269 3221744.733 -14194873.525 10 0 60442 4500.00000 0 -19255826.778 2376753.605 -16572036.828 10 0 60442 5400.00000 0 -17393397.920 1261673.427 -18627614.368 10 0 60442 6300.00000 0 -15432232.023 -123790.955 -20321771.979 10 0 60442 7200.00000 0 -13436768.971 -1767427.399 -21621689.348 10 0 60442 8100.00000 0 -11469539.958 -3644780.982 -22502189.525 10 0 60442 9000.00000 0 -9588666.616 -5719937.424 -22946221.128 10 0 60442 9900.00000 0 -7845562.910 -7946793.706 -22945184.611 10 0 60442 10800.00000 0 -6282934.546 -10270764.116 -22499096.842 10 0 60442 11700.00000 0 -4933158.111 -12630851.976 -21616591.070 10 0 60442 12600.00000 0 -3817106.453 -14962002.113 -20314752.251 10 0 60442 13500.00000 0 -2943468.245 -17197637.466 -18618790.593 10 0 60442 14400.00000 0 -2308589.270 -19272275.407 -16561559.060 10 0 60442 15300.00000 0 -1896841.340 -21124115.731 -14182923.412 10 0 60442 16200.00000 0 -1681502.839 -22697493.106 -11528996.140 10 0 60442 17100.00000 0 -1626113.459 -23945092.064 -8651248.309 10 0 60442 18000.00000 0 -1686245.856 -24829832.044 -5605515.869 10 0 60442 18900.00000 0 -1811619.232 -25326343.496 -2450919.191 10 0 60442 19800.00000 0 -1948465.319 -25421972.895 751283.448 10 0 60442 20700.00000 0 -2042046.330 -25117274.053 3938886.105 10 0 60442 21600.00000 0 -2039217.818 -24425964.654 7049945.804 10 0 60442 22500.00000 0 -1890927.239 -23374349.396 10023989.590 10 0 60442 23400.00000 0 -1554541.565 -22000233.597 12803193.993 10 0 60442 24300.00000 0 -995904.414 -20351372.691 15333513.437 10 0 60442 25200.00000 0 -191034.533 -18483522.549 17565735.175 10 0 60442 26100.00000 0 872607.391 -16458172.422 19456439.817 10 0 60442 27000.00000 0 2195338.374 -14340055.588 20968848.560 10 0 60442 27900.00000 0 3764993.463 -12194541.977 22073540.571 10 0 60442 28800.00000 0 5557199.016 -10085021.913 22749026.541 10 0 60442 29700.00000 0 7536168.724 -8070390.260 22982167.418 10 0 60442 30600.00000 0 9655990.206 -6202735.846 22768430.264 10 0 60442 31500.00000 0 11862349.317 -4525332.321 22111976.370 10 0 60442 32400.00000 0 14094620.917 -3071013.762 21025579.974 10 0 60442 33300.00000 0 16288239.398 -1861002.137 19530379.144 10 0 60442 34200.00000 0 18377250.356 -904234.691 17655463.563 10 0 60442 35100.00000 0 20296937.110 -197218.282 15437307.182 10 0 60442 36000.00000 0 21986412.435 275584.497 12919056.639 10 0 60442 36900.00000 0 23391067.141 540854.976 10149689.291 10 0 60442 37800.00000 0 24464773.033 635043.121 7183057.348 10 0 60442 38700.00000 0 25171748.022 602576.637 4076836.886 10 0 60442 39600.00000 0 25488005.268 493731.331 891402.586 10 0 60442 40500.00000 0 25402325.796 362253.945 -2311349.460 10 0 60442 41400.00000 0 24916714.125 262838.995 -5469207.490 10 0 60442 42300.00000 0 24046318.206 248567.278 -8520854.389 10 0 60442 43200.00000 0 22818817.595 368415.096 -11407058.684 10 0 60442 44100.00000 0 21273306.074 664940.081 -14071822.881 10 0 60442 45000.00000 0 19458716.062 1172241.804 -16463466.812 10 0 60442 45900.00000 0 17431851.177 1914283.591 -18535625.267 10 0 60442 46800.00000 0 15255109.404 2903646.556 -20248141.045 10 0 60442 47700.00000 0 12993991.913 4140768.686 -21567836.799 10 0 60442 48600.00000 0 10714501.119 5613701.388 -22469151.529 10 0 60442 49500.00000 0 8480535.755 7298394.419 -22934630.228 10 0 60442 50400.00000 0 6351390.590 9159498.088 -22955257.916 10 0 60442 51300.00000 0 4379463.753 11151650.256 -22530632.162 10 0 60442 52200.00000 0 2608265.861 13221195.619 -21668971.034 10 0 60442 53100.00000 0 1070812.626 15308266.785 -20386956.322 10 0 60442 54000.00000 0 -211533.332 17349141.647 -18709414.756 10 0 60442 54900.00000 0 -1229724.239 19278779.919 -16668842.821 10 0 60442 55800.00000 0 -1987165.801 21033433.984 -14304783.629 10 0 60442 56700.00000 0 -2499327.714 22553225.783 -11663067.060 10 0 60442 57600.00000 0 -2792843.004 23784582.508 -8794927.101 10 0 60442 58500.00000 0 -2904134.562 24682429.292 -5756012.776 10 0 60442 59400.00000 0 -2877627.132 25212046.892 -2605311.391 10 0 60442 60300.00000 0 -2763620.556 25350516.065 595995.316 10 0 60442 61200.00000 0 -2615914.579 25087687.419 3785719.838 10 0 60442 62100.00000 0 -2489286.145 24426635.303 6901879.071 10 0 60442 63000.00000 0 -2436926.607 23383575.994 9883902.072 10 0 60442 63900.00000 0 -2507948.066 21987252.923 12673811.360 10 0 60442 64800.00000 0 -2745065.300 20277814.215 15217354.272 10 0 60442 65700.00000 0 -3182552.326 18305229.206 17465061.891 10 0 60442 66600.00000 0 -3844561.073 16127310.024 19373214.542 10 0 60442 67500.00000 0 -4743874.303 13807420.909 20904694.853 10 0 60442 68400.00000 0 -5881146.538 11411970.948 22029711.708 10 0 60442 69300.00000 0 -7244666.151 9007794.913 22726381.004 10 0 60442 70200.00000 0 -8810649.760 6659531.407 22981152.030 10 0 60442 71100.00000 0 -10544057.641 4427107.415 22789071.322 10 0 60442 72000.00000 0 -12399896.917 2363433.855 22153878.939 10 0 60442 72900.00000 0 -14324958.745 512407.603 21087935.367 10 0 60442 73800.00000 0 -16259917.418 -1092697.346 19611980.457 10 0 60442 74700.00000 0 -18141703.965 -2430383.381 17754728.993 10 0 60442 75600.00000 0 -19906055.189 -3491580.338 15552310.693 10 0 60442 76500.00000 0 -21490131.534 -4279768.193 13047565.398 10 0 60442 77400.00000 0 -22835094.079 -4810567.605 10289207.173 10 0 60442 78300.00000 0 -23888532.549 -5110817.042 7330873.656 10 0 60442 79200.00000 0 -24606642.351 -5217176.820 4230079.318 10 0 60442 80100.00000 0 -24956059.139 -5174320.340 1047093.408 10 0 60442 81000.00000 0 -24915273.810 -5032790.276 -2156235.187 10 0 60442 81900.00000 0 -24475568.553 -4846611.489 -5317682.801 10 0 60442 82800.00000 0 -23641434.752 -4670762.655 -8375861.610 10 0 60442 83700.00000 0 -22430455.472 -4558614.368 -11271412.124 10 0 60442 84600.00000 0 -20872657.689 -4559442.645 -13948154.136 10 0 60442 85500.00000 0 -19009361.754 -4716123.379 -16354173.765 10 0 60443 0.00000 0 -16891576.621 -5063105.281 -18442825.561 10 0 60443 900.00000 0 -14578006.835 -5624747.228 -20173631.816 10 0 60443 1800.00000 0 -12132757.231 -6414089.689 -21513059.554 10 0 60443 2700.00000 0 -9622826.870 -7432112.743 -22435164.729 10 0 60443 3600.00000 0 -7115498.690 -8667511.794 -22922089.072 10 0 60443 4500.00000 0 -4675731.498 -10097001.109 -22964401.903 10 0 60443 5400.00000 0 -2363661.791 -11686133.183 -22561280.643 10 0 60443 6300.00000 0 -232318.015 -13390600.651 -21720526.816 10 0 60443 7200.00000 0 1674358.994 -15157967.376 -20458417.260 10 0 60443 8100.00000 0 3323108.329 -16929757.561 -18799393.099 10 0 60443 9000.00000 0 4692488.982 -18643816.717 -16775591.961 10 0 60443 9900.00000 0 5773520.990 -20236846.765 -14426231.742 10 0 60443 10800.00000 0 6569801.891 -21647010.059 -11796857.048 10 0 60443 11700.00000 0 7097094.409 -22816493.784 -8938462.062 10 0 60443 12600.00000 0 7382403.283 -23693927.488 -5906506.172 10 0 60443 13500.00000 0 7462580.604 -24236552.176 -2759840.954 10 0 60443 14400.00000 0 7382518.896 -24412049.485 440430.967 10 0 60443 15300.00000 0 7193008.658 -24199953.409 3632142.972 10 0 60443 16200.00000 0 6948351.403 -23592584.393 6753274.139 10 0 60443 17100.00000 0 6703829.703 -22595465.602 9743157.680 10 0 60443 18000.00000 0 6513141.987 -21227202.938 12543664.061 10 0 60443 18900.00000 0 6425911.360 -19518832.984 15100335.274 10 0 60443 19800.00000 0 6485374.683 -17512665.471 17363447.747 10 0 60443 20700.00000 0 6726350.497 -15260668.180 19288982.770 10 0 60443 21600.00000 0 7173572.574 -12822461.427 20839485.368 10 0 60443 22500.00000 0 7840460.348 -10263005.569 21984794.810 10 0 60443 23400.00000 0 8728379.000 -7650077.859 22702632.556 10 0 60443 24300.00000 0 9826421.271 -5051643.579 22979036.309 10 0 60443 25200.00000 0 11111721.040 -2533230.716 22808631.872 10 0 60443 26100.00000 0 12550286.294 -155417.169 22194737.625 10 0 60443 27000.00000 0 14098317.198 2028465.377 21149299.649 10 0 60443 27900.00000 0 15703954.573 3974315.930 19692658.738 10 0 60443 28800.00000 0 17309385.799 5648855.107 17853153.782 10 0 60443 29700.00000 0 18853220.097 7030757.149 15666569.109 10 0 60443 30600.00000 0 20273033.631 8111276.928 13175436.454 10 0 60443 31500.00000 0 21507977.518 8894347.034 10428205.100 10 0 60443 32400.00000 0 22501339.059 9396142.372 7478296.421 10 0 60443 33300.00000 0 23202948.351 9644132.106 4383061.400 10 0 60443 34200.00000 0 23571328.807 9675660.370 1202661.762 10 0 60443 35100.00000 0 23575500.914 9536117.098 -2001103.066 10 0 60443 36000.00000 0 23196363.197 9276777.515 -5165999.878 10 0 60443 36900.00000 0 22427592.179 8952402.757 -8230572.555 10 0 60443 37800.00000 0 21276023.512 8618703.968 -11135335.963 10 0 60443 38700.00000 0 19761498.266 8329777.779 -13823929.461 10 0 60443 39600.00000 0 17916180.865 8135621.988 -16244207.574 10 0 60443 40500.00000 0 15783377.218 8079836.578 -18349246.904 10 0 60443 41400.00000 0 13415902.340 8197607.126 -20098250.243 10 0 60443 42300.00000 0 10874065.345 8514055.546 -21457330.976 10 0 60443 43200.00000 0 8223355.349 9043027.552 -22400163.409 10 0 60443 44100.00000 0 5531923.855 9786367.817 -22908487.225 10 0 60443 45000.00000 0 2867967.456 10733713.464 -22972457.032 10 0 60443 45900.00000 0 297118.441 11862814.935 -22590830.812 10 0 60443 46800.00000 0 -2120049.574 13140371.383 -21770993.939 10 0 60443 47700.00000 0 -4330298.661 14523346.420 -20528818.316 10 0 60443 48600.00000 0 -6289692.974 15960710.039 -18888359.089 10 0 60443 49500.00000 0 -7965173.969 17395534.804 -16881394.251 10 0 60443 50400.00000 0 -9335679.954 18767359.421 -14546815.342 10 0 60443 51300.00000 0 -10392764.243 20014721.453 -11929880.198 10 0 60443 52200.00000 0 -11140686.924 21077753.527 -9081341.415 10 0 60443 53100.00000 0 -11595977.059 21900734.291 -6056466.710 10 0 60443 54000.00000 0 -11786484.291 22434486.911 -2913969.694 10 0 60443 54900.00000 0 -11749960.262 22638523.867 285128.524 10 0 60443 55800.00000 0 -11532230.085 22482847.130 3478684.731 10 0 60443 56700.00000 0 -11185031.572 21949327.054 6604642.801 10 0 60443 57600.00000 0 -10763613.984 21032600.910 9602242.771 10 0 60443 58500.00000 0 -10324198.455 19740452.100 12413205.740 10 0 60443 59400.00000 0 -9921408.107 18093653.029 14982871.040 10 0 60443 60300.00000 0 -9605777.209 16125277.119 17261263.063 10 0 60443 61200.00000 0 -9421445.393 13879507.944 19204066.595 10 0 60443 62100.00000 0 -9404135.030 11409994.515 20773491.441 10 0 60443 63000.00000 0 -9579497.837 8777820.824 21939009.449 10 0 60443 63900.00000 0 -9961901.133 6049173.911 22677949.582 10 0 60443 64800.00000 0 -10553705.483 3292807.229 22975939.580 10 0 60443 65700.00000 0 -11345064.754 577404.510 22827185.770 10 0 60443 66600.00000 0 -12314257.501 -2031046.488 22234585.667 10 0 60443 67500.00000 0 -13428536.228 -4471761.597 21209671.268 10 0 60443 68400.00000 0 -14645459.189 -6691445.444 19772384.120 10 0 60443 69300.00000 0 -15914649.041 -8646259.756 17950686.471 10 0 60443 70200.00000 0 -17179904.594 -10303393.642 15780015.987 10 0 60443 71100.00000 0 -18381576.891 -11642171.341 13302594.509 10 0 60443 72000.00000 0 -19459109.601 -12654652.335 10566604.294 10 0 60443 72900.00000 0 -20353636.574 -13345700.058 7625247.829 10 0 60443 73800.00000 0 -21010526.964 -13732517.776 4535709.655 10 0 60443 74700.00000 0 -21381770.307 -13843672.665 1358040.787 10 0 60443 75600.00000 0 -21428100.751 -13717650.657 -1846012.170 10 0 60443 76500.00000 0 -21120770.604 -13401004.447 -5014209.950 10 0 60443 77400.00000 0 -20442898.201 -12946174.031 -8085031.669 10 0 60443 78300.00000 0 -19390333.127 -12409072.920 -10998870.077 10 0 60443 79200.00000 0 -17972002.211 -11846542.746 -13699187.540 10 0 60443 80100.00000 0 -16209721.575 -11313784.311 -16133610.247 10 0 60443 81000.00000 0 -14137482.397 -10861873.727 -18254939.656 10 0 60443 81900.00000 0 -11800239.962 -10535468.430 -20022061.993 10 0 60443 82800.00000 0 -9252256.195 -10370799.555 -21400738.843 10 0 60443 83700.00000 0 -6555064.167 -10394034.874 -22364264.292 10 0 60443 84600.00000 0 -3775138.538 -10620080.874 -22893976.734 10 0 60443 85500.00000 0 -981367.822 -11051874.067 -22979616.149 99